User: anonymous   Login
Location: Ayer Observatory
(42.2600°N, 71.0700°W)
Time: 05:29:11
(UTC-04:00)
Language:

XW-2A - Orbit

View from above orbital plane
View from above orbital plane
View from above satellite
View from above satellite

Ground track
Ground track

The orbit data is extracted from the following two-line orbital elements,

1 40903U 15049E   19198.13812527  .00001391  00000-0  34651-4 0  9999
2 40903  97.3361 241.0602 0014868  47.2265  37.3739 15.41915708214634
Epoch (UTC): 17 July 2019 03:18:54
Eccentricity: 0.0014868
inclination: 97.3361°
perigee height: 430 km
apogee height: 450 km
right ascension of ascending node: 241.0602°
argument of perigee: 47.2265°
revolutions per day: 15.41915708
mean anomaly at epoch: 37.3739°
orbit number at epoch: 21463

The dashed part of the orbit path shows where the satellite is in the earth's shadow,  

DLR